weather.gov     
National Weather Service

Regional Weather Roundup
NWS Homepage
This page is being discontinued on March 12, 2014.
The same data is available at this site. Please update your bookmarks.
Thank you, and we apologize for the inconvenience.
Please send an email to SR-SRH.Webmaster@noaa.gov with any concerns.


Current Version
Previous Version:    01  02  03  04  05  06  07  08  09  10  11  12  13  14  15  16  17  18  19  20  21  22  23  24  25  26  27  28  29  30  
   31  32  33  34  35  36  37  38  39  40  41  42  43  44  45  46  47  48  49  50  51  52  53  54  55  56  57  58  59  60  
[Printable]
304
ASUS43 KMKX 191800
RWRWI

WISCONSIN REGIONAL WEATHER ROUNDUP
NATIONAL WEATHER SERVICE MILWAUKEE/SULLIVAN WI
1200 PM CST FRI DEC 19 2014

NOTE: "FAIR" INDICATES FEW OR NO CLOUDS BELOW 12,000 FEET WITH NO
SIGNIFICANT WEATHER AND/OR OBSTRUCTIONS TO VISIBILITY.

WIZ001-002-006>008-014>016-023>028-191900-
NORTHWEST WISCONSIN

CITY           SKY/WX    TMP DP  RH WIND       PRES   REMARKS
SUPERIOR ARPT  LGT SNOW  25  22  89 S3        30.25F
ASHLAND        CLOUDY    24  20  84 SW5       30.25F WCI  18
6HR MIN TEMP:  22; 6HR MAX TEMP:  24;

HAYWARD        LGT SNOW  23  20  88 S7        30.22F FOG     WCI  15
6HR MIN TEMP:  21; 6HR MAX TEMP:  23; 6HR PCP: TRACE;

SIREN          LGT SNOW  25  20  83 S5        30.23F WCI  19
CUMBERLAND     CLOUDY    25  19  80 S6        30.23S HAZE    WCI  18
RICE LAKE      CLOUDY    25  20  82 SE7       30.25F WCI  17
CHETEK         CLOUDY    25  21  85 SE7       30.24F WCI  17
LADYSMITH      CLOUDY    24  22  90 SE6       30.25F WCI  17
EAU CLAIRE     NOT AVBL
MENOMONIE      CLOUDY    27  20  76 SE7       30.25F WCI  20
NEW RICHMOND   CLOUDY    26  21  82 S6        30.24F WCI  19
OSCEOLA        CLOUDY    26  21  83 SE6       30.27F WCI  19
$$

WIZ003>005-009-010-017-018-191900-
NORTH CENTRAL WISCONSIN

CITY           SKY/WX    TMP DP  RH WIND       PRES   REMARKS
MANITOWISH WTR CLOUDY    20  19  98 S7        30.21F WCI  11
ARBOR VITAE    CLOUDY    22  20  92 S6        30.22S WCI  14
WOODRUFF       CLOUDY    22  20  92 S6        30.22S WCI  14
RHINELANDER    PTSUNNY   19  17  92 CALM      30.22F
6HR MIN TEMP:   2; 6HR MAX TEMP:  19;

EAGLE RIVER    PTSUNNY   19  18  97 CALM      30.22F
LAND O LAKES   CLOUDY    19  17  94 CALM      30.23F
PHILLIPS       CLOUDY    22  19  89 SW6       30.22F WCI  14
TOMAHAWK       CLOUDY    22  20  93 CALM      30.24F
MEDFORD        CLOUDY    22  19  90 S6        30.23F WCI  14
MERRILL        CLOUDY    24  18  77 S3        30.24F
$$

WIZ029-030-035-036-043>047-191900-
CENTRAL WISCONSIN

CITY           SKY/WX    TMP DP  RH WIND       PRES   REMARKS
WAUSAU         CLOUDY    25  19  78 S5        30.24S WCI  19
6HR MIN TEMP:  15; 6HR MAX TEMP:  25;

MOSINEE        CLOUDY    25  19  80 S5        30.26  WCI  19
MARSHFIELD     CLOUDY    24  20  84 CALM      30.24F
6HR MIN TEMP:  23; 6HR MAX TEMP:  24;

STEVENS POINT  CLOUDY    24  17  73 SW5       30.27F WCI  18
WAUPACA        PTSUNNY   30  21  70 N3        30.29F
WAUTOMA        NOT AVBL
WISC RAPIDS    CLOUDY    25  18  74 SE5       30.28F WCI  19
6HR MIN TEMP:  22; 6HR MAX TEMP:  25;

CAMP DOUGLAS   NOT AVBL
$$

WIZ011>013-019>022-031-037>040-048>050-191900-
NORTHEAST WISCONSIN

CITY           SKY/WX    TMP DP  RH WIND       PRES   REMARKS
ANTIGO         SUNNY     24  18  78 CALM      30.23F
SHAWANO        SUNNY     28  21  76 CALM      30.29F
OCONTO         SUNNY     28  21  75 CALM      30.29F
STURGEON BAY   MOSUNNY   27  19  74 NW3       30.29F
6HR MIN TEMP:  18; 6HR MAX TEMP:  28;

GREEN BAY      SUNNY     28  23  81 CALM      30.29F
6HR MIN TEMP:  16; 6HR MAX TEMP:  29;

MANITOWOC      PTSUNNY   30  21  69 CALM      30.29S
APPLETON       NOT AVBL
CLINTONVILLE   SUNNY     28  21  74 CALM      30.28F
OSHKOSH        MOSUNNY   29  20  69 VRB3      30.28F
6HR MIN TEMP:  16; 6HR MAX TEMP:  29;

$$

WIZ032>034-041-042-053>061-191900-
SOUTHWEST WISCONSIN

CITY           SKY/WX    TMP DP  RH WIND       PRES   REMARKS
LA CROSSE      CLOUDY    30  19  63 SW7       30.29F WCI  23
6HR MIN TEMP:  23; 6HR MAX TEMP:  30;

SPARTA         PTSUNNY   28  19  67 SE7       30.29F WCI  21
VIROQUA        CLOUDY    26  21  79 S7        30.26S WCI  19
BOSCOBEL       CLOUDY    29  19  66 CALM      30.31F
6HR MIN TEMP:  25; 6HR MAX TEMP:  29;

PRAIRIE DU CHI CLOUDY    28  19  70 SE5       30.30F WCI  23
PLATTEVILLE    CLOUDY    27  20  76 CALM      30.30F
$$

WIZ056-057-062-063-064-067-068-191900-
SOUTH CENTRAL WISCONSIN

CITY           SKY/WX    TMP DP  RH WIND       PRES   REMARKS
REEDSBURG      CLOUDY    24  20  84 CALM      30.29S
BARABOO/DELLS  CLOUDY    24  20  87 SW3       30.29S
LONE ROCK      NOT AVBL
MINERAL POINT  CLOUDY    28  21  74 SW3       30.28F
MADISON        CLOUDY    26  19  74 CALM      30.29F
6HR MIN TEMP:  25; 6HR MAX TEMP:  27;

MIDDLETON      CLOUDY    27  21  78 CALM      30.30F
WATERTOWN      CLOUDY    28  19  69 SE5       30.29F WCI  22
MONROE         CLOUDY    27  23  86 S5        30.29S WCI  21
JANESVILLE     CLOUDY    28  21  74 CALM      30.30F
$$

WIZ051-052-058>065-066-070>072-191900-
SOUTHEAST WISCONSIN

CITY           SKY/WX    TMP DP  RH WIND       PRES   REMARKS
MILWAUKEE      CLOUDY    30  18  60 SW7       30.29F WCI  23
6HR MIN TEMP:  25; 6HR MAX TEMP:  30;

WAUKESHA       NOT AVBL
MILWAUKEE/TIMM CLOUDY    30  18  59 W3        30.29F
RACINE         CLOUDY    30  19  63 W7        30.31S WCI  23
6HR MIN TEMP:  27; 6HR MAX TEMP:  30;

BURLINGTON     CLOUDY    27  17  66 CALM      30.30S
KENOSHA        CLOUDY    29  20  69 W5        30.29F WCI  24
6HR MIN TEMP:  27; 6HR MAX TEMP:  29;

FOND DU LAC    PTSUNNY   29  20  69 VRB3      30.29S
6HR MIN TEMP:  15; 6HR MAX TEMP:  30;

SHEBOYGAN      CLOUDY    30  20  66 NW5       30.28S WCI  25
6HR MIN TEMP:  23; 6HR MAX TEMP:  30;

WEST BEND      CLOUDY    30  19  64 W5        30.28S WCI  25
JUNEAU         CLOUDY    26  18  70 CALM      30.30S
$$

LSZ147-162-191900-
LAKE SUPERIOR

STATION/POSITION TIME  TEMP    WIND        PRES    WAVE
                       AIR SEA DIR/SP/G            HT/PER
                 (UTC) (F)     (DEG/KT/KT) (MB)    (FT/S)
DEVILS ISLAND    1700   24     200/  6/  8 1026.2F
PORT WING        1740   24     160/  5/  7 1024.7F
SAXON HARBOR     1700   24        CALM     1025.1F
$$

LMZ867-665-643>646-191900-
LAKE MICHIGAN

STATION/POSITION TIME  TEMP    WIND        PRES    WAVE
                       AIR SEA DIR/SP/G            HT/PER
                 (UTC) (F)     (DEG/KT/KT) (MB)    (FT/S)
CHAMBERS ISLAND  1700   29      10/  3/  5 1026.1F
NORTHPORT PIER   1720   28     330/  5/  7 1025.4F
SISTER BAY       1613          360/  7/  8   N/A
ALGOMA LAKESHORE 1714          350/  5/  8   N/A
KEWAUNEE LAKESHO 1700   29     350/  4/  6 1024.9F
SHEBOYGAN LAKESH 1700   29 34  320/  9/ 10 1026.7F
PORT WASHINGTON  1740   31     300/  4/  6 1026.4S
MILWAUKEE LAKESH 1700   29     270/  5/  7   N/A
KENOSHA   LAKESH 1700   28     280/  6/  8 1026.1F
$$

TC  - TEMPERATURE IN CELSIUS
VSB - VISIBILITY IN STATUTE MILES
WCI - WIND CHILL INDEX
HX  - HEAT INDEX





U.S. Dept. of Commerce
NOAA National Weather Service
1325 East West Highway
Silver Spring, MD 20910
E-mail: w-nws.webmaster@noaa.gov
Page last modified: May 16, 2007
NATIONAL WEATHER SERVICE: for Safety, for Work, for Fun - FOR LIFE